Weather History for Houston / Dunn Helistop, TX

Change the Weather History Date:

Tuesday, October 15, 2013

  Actual Average (KHOU) Record (KHOU)
Temperature  
Mean Temperature 81 °F 72 °F  
Max Temperature 89 °F 82 °F 92 °F (1947)
Min Temperature 73 °F 61 °F 40 °F (1978)
Degree Days  
Heating Degree Days 0 1  
Month to date heating degree days 4  
Since 1 July heating degree days 5  
Cooling Degree Days 16 7  
Month to date cooling degree days 134  
Year to date cooling degree days 2959  
Growing Degree Days 31 (Base 50)    
Moisture  
Dew Point 70 °F    
Average Humidity 75    
Maximum Humidity 94    
Minimum Humidity 49    
Precipitation  
Precipitation 0.00 in 0.20 in 4.87 in (2007)
Month to date precipitation 2.60  
Year to date precipitation 38.59  
Sea Level Pressure  
Sea Level Pressure 29.92 in    
Wind  
Wind Speed 7 mph (SSE)    
Max Wind Speed 16 mph    
Max Gust Speed 20 mph    
Visibility 10 miles    
Events      
T = Trace of Precipitation, MM = Missing Value Source: NWS Daily Summary

Daily Weather History Graph

Daily Weather History Graph

Search for Another Location

Airport:

Trip Planner

Search our weather history database for the weather conditions in past years. The results will help you decide how hot, cold, wet, or windy it might be!

Date:

Astronomy

Oct. 15, 2013 Rise Set
Actual Time 7:23 AM CDT 6:50 PM CDT
Civil Twilight 6:59 AM CDT 7:14 PM CDT
Nautical Twilight 6:31 AM CDT 7:42 PM CDT
Astronomical Twilight 6:03 AM CDT 8:10 PM CDT
Moon 4:44 PM CDT (10/15) 4:01 AM CDT (10/15)
Length of Visible Light 12h 15m
Length of Day
11h 27m
Waxing Gibbous, 88% of the Moon is Illuminated
Oct 15
Waxing Gibbous
Oct 18
Full
Oct 26
Last Quarter
Nov 3
New
Nov 9
First Quarter

Hourly Weather History & Observations

Time (CDT) Temp. Heat Index Dew Point Humidity Pressure Visibility Wind Dir Wind Speed Gust Speed Precip Events Conditions
12:15 AM 75.2 °F - 71.6 °F 89% 29.95 in 10.0 mi SE 9.2 mph - N/A   Clear
12:35 AM 75.2 °F - 71.6 °F 89% 29.96 in 10.0 mi SE 5.8 mph - N/A   Clear
12:55 AM 75.2 °F - 71.6 °F 89% 29.96 in 10.0 mi SE 6.9 mph - N/A   Clear
1:15 AM 75.2 °F - 71.6 °F 89% 29.96 in 10.0 mi SE 6.9 mph - N/A   Clear
1:35 AM 75.2 °F - 71.6 °F 89% 29.96 in 10.0 mi SE 5.8 mph - N/A   Clear
1:55 AM 75.2 °F - 71.6 °F 89% 29.97 in 10.0 mi SSE 4.6 mph - N/A   Clear
2:15 AM 75.2 °F - 71.6 °F 89% 29.96 in 10.0 mi SSE 6.9 mph - N/A   Clear
2:35 AM 75.2 °F - 71.6 °F 89% 29.95 in 10.0 mi SSE 5.8 mph - N/A   Clear
2:55 AM 75.2 °F - 71.6 °F 89% 29.94 in 10.0 mi SE 6.9 mph - N/A   Clear
3:15 AM 75.2 °F - 71.6 °F 89% 29.94 in 10.0 mi SE 6.9 mph - N/A   Clear
3:35 AM 73.4 °F - 71.6 °F 94% 29.94 in 10.0 mi SSE 5.8 mph - N/A   Clear
3:55 AM 73.4 °F - 71.6 °F 94% 29.94 in 10.0 mi SSE 4.6 mph - N/A   Clear
4:15 AM 73.4 °F - 71.6 °F 94% 29.94 in 10.0 mi SSE 5.8 mph - N/A   Clear
4:35 AM 73.4 °F - 71.6 °F 94% 29.93 in 10.0 mi SSE 6.9 mph - N/A   Clear
4:55 AM 75.2 °F - 71.6 °F 89% 29.93 in 10.0 mi SSE 6.9 mph - N/A   Clear
5:15 AM 75.2 °F - 71.6 °F 89% 29.93 in 10.0 mi SSE 4.6 mph - N/A   Clear
5:35 AM 75.2 °F - 71.6 °F 89% 29.93 in 10.0 mi SSE 5.8 mph - N/A   Clear
5:55 AM 75.2 °F - 71.6 °F 89% 29.93 in 10.0 mi SSE 5.8 mph - N/A   Clear
6:15 AM 75.2 °F - 71.6 °F 89% 29.94 in 10.0 mi SSE 5.8 mph - N/A   Clear
6:35 AM 75.2 °F - 71.6 °F 89% 29.94 in 10.0 mi SSE 5.8 mph - N/A   Clear
6:55 AM 73.4 °F - 71.6 °F 94% 29.94 in 9.0 mi ESE 3.5 mph - N/A   Clear
7:15 AM 73.4 °F - 71.6 °F 94% 29.94 in 10.0 mi SE 4.6 mph - N/A   Clear
7:35 AM 73.4 °F - 71.6 °F 94% 29.95 in 9.0 mi SSE 4.6 mph - N/A   Clear
7:55 AM 75.2 °F - 71.6 °F 89% 29.95 in 10.0 mi South 3.5 mph - N/A   Clear
8:15 AM 75.2 °F - 71.6 °F 89% 29.96 in 10.0 mi Calm Calm - N/A   Clear
8:35 AM 77.0 °F - 71.6 °F 83% 29.97 in 8.0 mi East 3.5 mph - N/A   Clear
8:55 AM 77.0 °F - 71.6 °F 83% 29.96 in 10.0 mi Calm Calm - N/A   Partly Cloudy
9:15 AM 78.8 °F - 71.6 °F 78% 29.96 in 10.0 mi SSE 5.8 mph - N/A   Scattered Clouds
9:35 AM 80.6 °F 84.6 °F 71.6 °F 74% 29.96 in 10.0 mi SE 6.9 mph - N/A   Scattered Clouds
9:55 AM 82.4 °F 87.2 °F 71.6 °F 70% 29.97 in 10.0 mi South 9.2 mph - N/A   Scattered Clouds
10:15 AM 82.4 °F 87.2 °F 71.6 °F 70% 29.96 in 8.0 mi SSW 4.6 mph - N/A   Scattered Clouds
10:35 AM 82.4 °F 87.2 °F 71.6 °F 70% 29.96 in 10.0 mi SSE 8.1 mph - N/A   Scattered Clouds
10:55 AM 84.2 °F 89.6 °F 71.6 °F 66% 29.95 in 10.0 mi South 3.5 mph - N/A   Scattered Clouds
11:15 AM 84.2 °F 88.4 °F 69.8 °F 62% 29.95 in 10.0 mi SSW 4.6 mph - N/A   Scattered Clouds
11:35 AM 84.2 °F 88.4 °F 69.8 °F 62% 29.95 in 10.0 mi SSE 8.1 mph - N/A   Clear
11:55 AM 87.8 °F 91.4 °F 68.0 °F 52% 29.95 in 10.0 mi SSE 3.5 mph - N/A   Clear
12:15 PM 86.0 °F 89.4 °F 68.0 °F 55% 29.94 in 10.0 mi SSW 8.1 mph - N/A   Partly Cloudy
12:35 PM 86.0 °F 89.4 °F 68.0 °F 55% 29.93 in 10.0 mi South 4.6 mph - N/A   Partly Cloudy
12:55 PM 89.6 °F 93.4 °F 68.0 °F 49% 29.92 in 10.0 mi South 3.5 mph - N/A   Partly Cloudy
1:15 PM 86.0 °F 89.4 °F 68.0 °F 55% 29.91 in 10.0 mi SSE 5.8 mph - N/A   Scattered Clouds
1:35 PM 86.0 °F 89.4 °F 68.0 °F 55% 29.90 in 10.0 mi SSW 5.8 mph - N/A   Mostly Cloudy
1:55 PM 86.0 °F 89.4 °F 68.0 °F 55% 29.90 in 9.0 mi Calm Calm - N/A   Mostly Cloudy
2:15 PM 86.0 °F 89.4 °F 68.0 °F 55% 29.89 in 10.0 mi SSE 6.9 mph - N/A   Mostly Cloudy
2:35 PM 87.8 °F 92.6 °F 69.8 °F 55% 29.88 in 10.0 mi ESE 4.6 mph - N/A   Scattered Clouds
2:55 PM 84.2 °F 88.4 °F 69.8 °F 62% 29.87 in 10.0 mi SSE 10.4 mph - N/A   Mostly Cloudy
3:15 PM 84.2 °F 88.4 °F 69.8 °F 62% 29.87 in 10.0 mi SE 6.9 mph - N/A   Mostly Cloudy
3:35 PM 84.2 °F 88.4 °F 69.8 °F 62% 29.87 in 10.0 mi SSE 11.5 mph - N/A   Mostly Cloudy
3:55 PM 84.2 °F 87.3 °F 68.0 °F 58% 29.85 in 10.0 mi SSE 16.1 mph - N/A   Mostly Cloudy
4:15 PM 84.2 °F 87.3 °F 68.0 °F 58% 29.86 in 10.0 mi SSE 9.2 mph 17.3 mph N/A   Mostly Cloudy
4:35 PM 84.2 °F 87.3 °F 68.0 °F 58% 29.86 in 10.0 mi SE 12.7 mph 18.4 mph N/A   Scattered Clouds
4:55 PM 84.2 °F 87.3 °F 68.0 °F 58% 29.85 in 10.0 mi SSE 15.0 mph - N/A   Mostly Cloudy
5:15 PM 84.2 °F 87.3 °F 68.0 °F 58% 29.85 in 10.0 mi SSE 13.8 mph - N/A   Mostly Cloudy
5:35 PM 84.2 °F 87.3 °F 68.0 °F 58% 29.86 in 10.0 mi SSE 9.2 mph - N/A   Overcast
5:55 PM 82.4 °F 85.4 °F 68.0 °F 62% 29.86 in 10.0 mi SSE 11.5 mph - N/A   Overcast
6:15 PM 82.4 °F 85.4 °F 68.0 °F 62% 29.86 in 10.0 mi SSE 15.0 mph 18.4 mph N/A   Mostly Cloudy
6:35 PM 82.4 °F 85.4 °F 68.0 °F 62% 29.86 in 10.0 mi SSE 12.7 mph - N/A   Scattered Clouds
6:55 PM 80.6 °F 83.2 °F 68.0 °F 65% 29.86 in 10.0 mi SSE 16.1 mph 19.6 mph N/A   Clear
7:15 PM 80.6 °F 83.2 °F 68.0 °F 65% 29.87 in 10.0 mi SSE 13.8 mph - N/A   Clear
7:55 PM 78.8 °F - 69.8 °F 74% 29.89 in 10.0 mi SSE 10.4 mph - N/A   Clear
8:15 PM 78.8 °F - 69.8 °F 74% 29.89 in 10.0 mi SSE 10.4 mph - N/A   Clear
8:35 PM 77.0 °F - 69.8 °F 78% 29.89 in 10.0 mi SSE 8.1 mph - N/A   Clear
8:55 PM 77.0 °F - 69.8 °F 78% 29.90 in 10.0 mi SSE 10.4 mph - N/A   Clear
9:15 PM 77.0 °F - 69.8 °F 78% 29.91 in 10.0 mi South 5.8 mph - N/A   Clear
9:35 PM 77.0 °F - 69.8 °F 78% 29.91 in 10.0 mi SSE 5.8 mph - N/A   Clear
9:55 PM 77.0 °F - 69.8 °F 78% 29.92 in 10.0 mi South 5.8 mph - N/A   Clear
10:15 PM 77.0 °F - 69.8 °F 78% 29.92 in 10.0 mi SSE 4.6 mph - N/A   Clear
10:35 PM 77.0 °F - 69.8 °F 78% 29.92 in 10.0 mi SSE 6.9 mph - N/A   Clear
10:55 PM 75.2 °F - 68.0 °F 78% 29.92 in 10.0 mi SSE 6.9 mph - N/A   Clear
11:15 PM 75.2 °F - 68.0 °F 78% 29.92 in 10.0 mi SSW 4.6 mph - N/A   Clear
11:35 PM 75.2 °F - 68.0 °F 78% 29.92 in 10.0 mi SSW 3.5 mph - N/A   Clear
11:55 PM 75.2 °F - 68.0 °F 78% 29.92 in 10.0 mi South 4.6 mph - N/A   Clear